Track COSMOS 1388 now! 10-day predictions COSMOS 1388 is classified as:
1 13375U 82073A 21110.93565235 -.00000012 00000-0 21212-4 0 9998 2 13375 74.0180 38.5333 0051996 149.0397 278.0722 12.57466970778815